Regional Weather Roundup
Issued by NWS Jackson, KY

Home | Current Version | Previous Version | Graphics & Text | Print | Product List | Glossary On
Versions: 1 2 3 4 5 6 7 8 9 10 11 12 13 14 15 16 17 18 19 20 21 22 23 24 25 26 27 28 29 30 31 32 33 34 35 36 37 38 39 40 41 42 43 44 45 46 47 48 49 50
849
ASUS43 KJKL 161210
RWRJKL

EAST KENTUCKY HOURLY WEATHER ROUNDUP
NATIONAL WEATHER SERVICE JACKSON KY
700 AM EST TUE JAN 16 2018

NOTE: "FAIR" INDICATES FEW OR NO CLOUDS BELOW 12,000 FEET WITH
NO SIGNIFICANT WEATHER AND/OR OBSTRUCTIONS TO VISIBILITY.

* THESE REPORTS ARE NOT UNDER NWS QUALITY CONTROL AND MAY NOT
  REPORT WEATHER SUCH AS PRECIPITATION AND FOG.

KYZ079-080-083-085-087-088-110-112-115-119-120-161300
...EASTERN KENTUCKY...

CITY           SKY/WX    TMP DP  RH WIND       PRES   REMARKS
JACKSON        FLURRIES  23  19  85 NW8       30.39R WCI  14
6HR MIN TEMP:  22; 6HR MAX TEMP:  31; 6HR PCP:  0.03;

LONDON         CLOUDY    20  15  81 NW10      30.42R WCI   9
6HR MIN TEMP:  20; 6HR MAX TEMP:  31;

SOMERSET*      FLURRIES  18  14  86 N9        30.50R WCI   6
MONTICELLO*    FLURRIES  18  15  88 NW10      30.50R WCI   6
6HR MIN TEMP:  18; 6HR MAX TEMP:  30; 6HR PCP: TRACE;

WILLIAMSBURG*  CLOUDY    25  23  93 CALM      30.42R
MIDDLESBORO*   CLOUDY    32  28  84 N3        30.39R
6HR MIN TEMP:  28; 6HR MAX TEMP:  32;

HARLAN APT*    CLOUDY    32  27  80 CALM      30.35S
PIKE CO APT*   CLOUDY    29  28  95 CALM      30.35S
BIG SANDY APT* MIX PCPN  29  26  91 CALM      30.38R
6HR MIN TEMP:  29; 6HR MAX TEMP:  33;

MOREHEAD APT*  LGT SNOW  16  10  79 NW7G14    30.47R VSB 1   WCI   6
ASHLAND*       LGT SNOW  23  21  92 N6        30.45R FOG     WCI  16
$$

KYZ035-036-041-042-044-050-067-078-099-161300
...CENTRAL KENTUCKY...

CITY           SKY/WX    TMP DP  RH WIND       PRES   REMARKS
MT STERLING*   LGT SNOW  16  12  86 NW8       30.48R WCI   5
FLEMING/MASON* LGT SNOW  13   9  86 W6        30.47S WCI   4
DANVILLE*      FLURRIES  14  10  85 NW5       30.48S WCI   6
LEXINGTON      LGT SNOW  13   8  81 NW6       30.47R WCI   4
6HR MIN TEMP:  13; 6HR MAX TEMP:  19; 6HR PCP:  0.06;

FRANKFORT      LGT SNOW  11   5  77 W8        30.49R WCI  -1
6HR MIN TEMP:  11; 6HR MAX TEMP:  20; 6HR PCP: TRACE;

LOUISVILLE     CLOUDY    10   1  67 W13       30.56R WCI  -5
6HR MIN TEMP:   9; 6HR MAX TEMP:  16; 6HR PCP:  0.02;

LEBANON*       LGT SNOW  12   9  85 NW10      30.51R WCI  -1
GLASGOW*       LGT SNOW  12   9  87 W8        30.54R WCI   1
BOWLING GREEN  LGT SNOW  11   7  84 NW7       30.58R FOG     WCI   0
6HR MIN TEMP:  11; 6HR MAX TEMP:  19; 6HR PCP:  0.04;

$$

KYZ091>093-OHZ055-061-077-WVZ005-015-034-035-042-161300
...SOUTHERN OHIO/WEST VIRGINIA...

CITY           SKY/WX    TMP DP  RH WIND       PRES   REMARKS
COVINGTON      CLOUDY     8   2  76 W12       30.46R WCI  -7
COLUMBUS       CLOUDY    11   3  70 W5        30.44R WCI   3
DAYTON         MOCLDY     1  -2  87 W7        30.45R WCI -12
WILMINGTON     CLOUDY     8   3  80 W10       30.43R WCI  -6
HUNTINGTON     LGT SNOW  26  22  84 NW12      30.41R FOG     WCI  16
CHARLESTON     LGT SNOW  30  26  85 W3        30.38R FOG
BECKLEY        CLOUDY    32  21  64 CALM      30.29R
BLUEFIELD      CLOUDY    31  20  63 SW7       30.29R WCI  24
LOGAN CO APT*  CLOUDY    30  27  86 CALM      30.33S
$$

VAZ002-007-008-TNZ017-027-036-066-071-161300
...SOUTHWEST VIRGINIA/EAST TENNESSEE...

CITY           SKY/WX    TMP DP  RH WIND       PRES   REMARKS
WISE*          CLOUDY    30  28  93 N3        30.30R
JONESVILLE*    CLOUDY    27  27 100 CALM      30.37R
ABINGDON*      MOCLDY    27  24  89 CALM      30.32S
BRISTOL          N/A     23  22  96 CALM      30.35R
MORRISTOWN*    PTSUNNY   28  25  86 SW3       30.34S
SEVIERVILLE*   SUNNY     25  23  93 CALM      30.37S
KNOXVILLE      CLOUDY    30  24  78 CALM      30.36S
LAFOLLETTE*    CLOUDY    32  27  80 CALM      30.41S
OAK RIDGE      CLOUDY    32  27  81 CALM      30.38R
CROSSVILLE     CLOUDY    24  21  88 NW7       30.38R WCI  16
NASHVILLE      LGT SNOW  18  14  84 N9        30.55R FOG     WCI   7
$$

...KEY TO REMARKS...
VSB - VISIBILITY IN MILES
WCI - WIND CHILL INDEX
HX  - HEAT INDEX

$$




USA.gov is the U.S. government's official web portal to all federal, state and local government web resources and services.